ALK104 EHAM-EDDN

Flight info

Callsign ALK104
Flight time 0h 59m
Altitude 35000
Route EDUPO Z739 MISGO DCT TIVUN DCT TESGA Z719 ETOLU Z723 RITUP/N0356F230 Z723 KOMIB T193 ERTES T194 DODAS DODAS1T
Aircraft A20N/M-SDE2E3FGHIRWXY/LB1

Departure

Time 2026-04-29 15:42
Airport Amsterdam Airport Schiphol (EHAM)

Arrival

Time 2026-04-29 16:41
Airport Nuremberg Airport (EDDN)
Time Latitude Longitude Altitude Speed Heading
2026-04-29 14:41 52.31276 4.75302 -4 ft 0 kts 266°
2026-04-29 15:14 52.31276 4.75308 -4 ft 1 kts 269°
2026-04-29 15:14 52.31276 4.75313 -4 ft 1 kts 272°
2026-04-29 15:14 52.31276 4.75319 -4 ft 1 kts 276°
2026-04-29 15:15 52.31275 4.75325 -4 ft 1 kts 279°
2026-04-29 15:15 52.31275 4.75331 -4 ft 1 kts 278°
2026-04-29 15:15 52.31274 4.75336 -4 ft 1 kts 276°
2026-04-29 15:15 52.31274 4.75342 -3 ft 1 kts 272°
2026-04-29 15:16 52.31274 4.75348 -3 ft 1 kts 269°
2026-04-29 15:16 52.31274 4.75353 -3 ft 1 kts 266°
2026-04-29 15:16 52.31274 4.75359 -3 ft 1 kts 263°
2026-04-29 15:16 52.31274 4.75365 -3 ft 1 kts 260°
2026-04-29 15:17 52.31275 4.75369 -3 ft 0 kts 258°
2026-04-29 15:17 52.31275 4.75371 -3 ft 0 kts 259°
2026-04-29 15:18 52.31275 4.75375 -3 ft 0 kts 264°
2026-04-29 15:18 52.31276 4.75380 -3 ft 0 kts 270°
2026-04-29 15:18 52.31276 4.75384 -3 ft 0 kts 277°
2026-04-29 15:18 52.31276 4.75388 -3 ft 0 kts 284°
2026-04-29 15:19 52.31275 4.75393 -3 ft 0 kts 294°
2026-04-29 15:19 52.31274 4.75397 -2 ft 0 kts 304°
2026-04-29 15:19 52.31273 4.75401 -2 ft 0 kts 315°
2026-04-29 15:19 52.31271 4.75405 -2 ft 0 kts 325°
2026-04-29 15:20 52.31269 4.75407 -2 ft 0 kts 331°
2026-04-29 15:20 52.31267 4.75409 -2 ft 0 kts 337°
2026-04-29 15:20 52.31264 4.75411 -2 ft 0 kts 343°
2026-04-29 15:20 52.31263 4.75412 -2 ft 0 kts 346°
2026-04-29 15:26 52.31262 4.75412 -2 ft 0 kts 347°
2026-04-29 15:26 52.31272 4.75409 -2 ft 0 kts 347°
2026-04-29 15:27 52.31275 4.75408 -2 ft 2 kts 347°
2026-04-29 15:27 52.31287 4.75407 -2 ft 5 kts 359°
2026-04-29 15:28 52.31366 4.75410 -4 ft 12 kts
2026-04-29 15:28 52.31427 4.75413 -4 ft 11 kts
2026-04-29 15:28 52.31501 4.75296 -8 ft 15 kts 269°
2026-04-29 15:28 52.31498 4.75104 -6 ft 18 kts 268°
2026-04-29 15:29 52.31493 4.74889 -3 ft 21 kts 268°
2026-04-29 15:29 52.31492 4.74789 -3 ft 0 kts 268°
2026-04-29 15:30 52.31491 4.74768 -3 ft 4 kts 266°
2026-04-29 15:30 52.31487 4.74717 -2 ft 5 kts 262°
2026-04-29 15:30 52.31482 4.74650 -1 ft 6 kts 262°
2026-04-29 15:30 52.31475 4.74573 0 ft 8 kts 263°
2026-04-29 15:31 52.31470 4.74471 1 ft 11 kts 269°
2026-04-29 15:31 52.31471 4.74360 0 ft 9 kts 271°
2026-04-29 15:31 52.31477 4.74236 -1 ft 13 kts 285°
2026-04-29 15:31 52.31549 4.74146 -1 ft 14 kts 355°
2026-04-29 15:32 52.31615 4.74158 -1 ft 15 kts
2026-04-29 15:32 52.31722 4.74165 -2 ft 17 kts
2026-04-29 15:32 52.31849 4.74173 -6 ft 20 kts
2026-04-29 15:32 52.31954 4.74182 -5 ft 14 kts 358°
2026-04-29 15:33 52.32007 4.74141 -6 ft 0 kts 322°
2026-04-29 15:33 52.32009 4.74138 -6 ft 2 kts 320°
2026-04-29 15:34 52.32022 4.74099 -6 ft 6 kts 284°
2026-04-29 15:34 52.32030 4.74019 -5 ft 8 kts 280°
2026-04-29 15:34 52.32038 4.73917 -3 ft 10 kts 279°
2026-04-29 15:34 52.32054 4.73805 -1 ft 11 kts 277°
2026-04-29 15:35 52.32051 4.73669 0 ft 13 kts 269°
2026-04-29 15:35 52.32058 4.73506 1 ft 10 kts 274°
2026-04-29 15:35 52.32061 4.73453 1 ft 5 kts 277°
2026-04-29 15:35 52.32076 4.73385 1 ft 8 kts 300°
2026-04-29 15:36 52.32128 4.73298 -1 ft 13 kts 316°
2026-04-29 15:36 52.32206 4.73185 -2 ft 17 kts 320°
2026-04-29 15:36 52.32306 4.73050 -4 ft 21 kts 317°
2026-04-29 15:36 52.32396 4.72917 -4 ft 9 kts 318°
2026-04-29 15:37 52.32448 4.72832 -4 ft 12 kts 319°
2026-04-29 15:37 52.32524 4.72734 -4 ft 15 kts 322°
2026-04-29 15:37 52.32615 4.72621 -3 ft 17 kts 322°
2026-04-29 15:37 52.32698 4.72480 -1 ft 18 kts 314°
2026-04-29 15:38 52.32784 4.72322 0 ft 5 kts 309°
2026-04-29 15:38 52.32819 4.72246 -1 ft 17 kts 298°
2026-04-29 15:38 52.32839 4.71998 -4 ft 23 kts 275°
2026-04-29 15:38 52.32964 4.71732 -2 ft 32 kts 309°
2026-04-29 15:39 52.33049 4.71573 -1 ft 27 kts 311°
2026-04-29 15:39 52.33176 4.71344 -1 ft 25 kts 311°
2026-04-29 15:39 52.33294 4.71122 -5 ft 22 kts 310°
2026-04-29 15:39 52.33390 4.70972 -4 ft 15 kts 327°
2026-04-29 15:40 52.33435 4.70943 -4 ft 0 kts 349°
2026-04-29 15:41 52.33444 4.70941 -4 ft 14 kts 351°
2026-04-29 15:41 52.33769 4.70988 -1 ft 77 kts
2026-04-29 15:41 52.34440 4.71030 -7 ft 101 kts
2026-04-29 15:41 52.35183 4.71079 9 ft 131 kts
2026-04-29 15:42 52.36191 4.71114 297 ft 155 kts 12°
2026-04-29 15:42 52.37298 4.71296 842 ft 165 kts 14°
2026-04-29 15:42 52.38484 4.71498 1592 ft 176 kts 13°
2026-04-29 15:42 52.39773 4.71684 2331 ft 195 kts 12°
2026-04-29 15:43 52.41186 4.71886 3144 ft 216 kts 16°
2026-04-29 15:43 52.42711 4.72573 3973 ft 234 kts 30°
2026-04-29 15:43 52.44184 4.73861 4717 ft 254 kts 36°
2026-04-29 15:43 52.45765 4.75332 5607 ft 265 kts 34°
2026-04-29 15:44 52.47204 4.77178 6723 ft 263 kts 54°
2026-04-29 15:44 52.48043 4.79821 7712 ft 265 kts 77°
2026-04-29 15:44 52.48265 4.82855 8716 ft 271 kts 86°
2026-04-29 15:44 52.48414 4.85964 9775 ft 276 kts 85°
2026-04-29 15:45 52.48398 4.89136 10767 ft 283 kts 99°
2026-04-29 15:45 52.47648 4.92168 11679 ft 294 kts 122°
2026-04-29 15:45 52.46161 4.94549 12586 ft 307 kts 141°
2026-04-29 15:45 52.44399 4.96574 13487 ft 314 kts 141°
2026-04-29 15:46 52.42586 4.98635 14405 ft 319 kts 141°
2026-04-29 15:46 52.40761 5.00725 15329 ft 321 kts 141°
2026-04-29 15:46 52.38948 5.02816 16222 ft 324 kts 141°
2026-04-29 15:46 52.37095 5.04957 17101 ft 328 kts 141°
2026-04-29 15:47 52.35217 5.07128 17987 ft 332 kts 141°
2026-04-29 15:47 52.33397 5.09440 18816 ft 333 kts 134°
2026-04-29 15:47 52.31799 5.12134 19565 ft 333 kts 127°
2026-04-29 15:47 52.30280 5.14945 20316 ft 336 kts 128°
2026-04-29 15:48 52.28715 5.17813 21062 ft 340 kts 128°
2026-04-29 15:48 52.27108 5.20748 21456 ft 355 kts 128°
2026-04-29 15:48 52.25414 5.23836 21651 ft 375 kts 128°
2026-04-29 15:48 52.23728 5.27187 21836 ft 391 kts 122°
2026-04-29 15:49 52.22125 5.30900 22017 ft 408 kts 122°
2026-04-29 15:49 52.20466 5.34743 22205 ft 425 kts 122°
2026-04-29 15:49 52.18718 5.38776 22397 ft 440 kts 122°
2026-04-29 15:49 52.17537 5.41489 22720 ft 445 kts 122°
2026-04-29 15:50 52.15125 5.47015 23613 ft 449 kts 122°
2026-04-29 15:50 52.13308 5.51172 24185 ft 452 kts 122°
2026-04-29 15:50 52.11479 5.55352 24690 ft 455 kts 122°
2026-04-29 15:50 52.09659 5.59507 25168 ft 458 kts 122°
2026-04-29 15:51 52.07801 5.63744 25637 ft 460 kts 122°
2026-04-29 15:51 52.05861 5.67902 25987 ft 465 kts 127°
2026-04-29 15:51 52.03747 5.71904 26263 ft 467 kts 126°
2026-04-29 15:51 52.01640 5.75933 26535 ft 469 kts 126°
2026-04-29 15:52 51.99512 5.79974 26767 ft 471 kts 126°
2026-04-29 15:52 51.97372 5.84003 26961 ft 472 kts 126°
2026-04-29 15:52 51.95212 5.88041 27195 ft 472 kts 127°
2026-04-29 15:52 51.93055 5.92052 27447 ft 472 kts 127°
2026-04-29 15:53 51.90833 5.96175 27700 ft 471 kts 127°
2026-04-29 15:53 51.88772 5.99993 27959 ft 470 kts 127°
2026-04-29 15:53 51.86614 6.03988 28218 ft 470 kts 127°
2026-04-29 15:53 51.84459 6.07970 28455 ft 469 kts 126°
2026-04-29 15:54 51.82304 6.11936 28695 ft 468 kts 127°
2026-04-29 15:54 51.80153 6.15881 28944 ft 468 kts 127°
2026-04-29 15:54 51.77999 6.19820 29191 ft 467 kts 127°
2026-04-29 15:54 51.75845 6.23754 29425 ft 466 kts 127°
2026-04-29 15:55 51.73695 6.27674 29665 ft 466 kts 126°
2026-04-29 15:55 51.71542 6.31594 29908 ft 465 kts 126°
2026-04-29 15:55 51.69397 6.35494 30173 ft 464 kts 126°
2026-04-29 15:55 51.67287 6.39326 30424 ft 464 kts 126°
2026-04-29 15:56 51.65142 6.43217 30655 ft 463 kts 126°
2026-04-29 15:56 51.63005 6.47087 30892 ft 462 kts 126°
2026-04-29 15:56 51.60871 6.50948 31134 ft 462 kts 126°
2026-04-29 15:56 51.58734 6.54812 31374 ft 461 kts 126°
2026-04-29 15:57 51.56589 6.58687 31624 ft 461 kts 126°
2026-04-29 15:57 51.54450 6.62542 31861 ft 460 kts 126°
2026-04-29 15:57 51.52337 6.66340 32098 ft 460 kts 126°
2026-04-29 15:57 51.50199 6.70176 32331 ft 460 kts 126°
2026-04-29 15:58 51.48054 6.74021 32568 ft 459 kts 126°
2026-04-29 15:58 51.45934 6.77810 32791 ft 459 kts 126°
2026-04-29 15:58 51.43783 6.81653 33011 ft 459 kts 126°
2026-04-29 15:58 51.41659 6.85438 33237 ft 458 kts 126°
2026-04-29 15:59 51.39677 6.89360 33452 ft 453 kts 120°
2026-04-29 15:59 51.37890 6.93543 33649 ft 452 kts 118°
2026-04-29 15:59 51.36143 6.97677 33850 ft 452 kts 118°
2026-04-29 15:59 51.34367 7.01858 34056 ft 451 kts 118°
2026-04-29 16:00 51.32609 7.05986 34252 ft 452 kts 118°
2026-04-29 16:00 51.30843 7.10122 34417 ft 452 kts 118°
2026-04-29 16:00 51.29052 7.14300 34556 ft 453 kts 119°
2026-04-29 16:00 51.27287 7.18411 34688 ft 453 kts 119°
2026-04-29 16:01 51.25490 7.22586 34813 ft 454 kts 119°
2026-04-29 16:01 51.23705 7.26725 34955 ft 455 kts 119°
2026-04-29 16:01 51.21898 7.30909 35071 ft 455 kts 119°
2026-04-29 16:01 51.20113 7.35038 35198 ft 456 kts 119°
2026-04-29 16:02 51.18297 7.39232 35300 ft 457 kts 119°
2026-04-29 16:02 51.14668 7.47599 35291 ft 463 kts 119°
2026-04-29 16:03 51.10995 7.56041 35307 ft 466 kts 119°
2026-04-29 16:03 51.07287 7.64531 35309 ft 469 kts 120°
2026-04-29 16:04 51.03524 7.73109 35303 ft 471 kts 120°
2026-04-29 16:04 50.99775 7.81626 35310 ft 472 kts 120°
2026-04-29 16:05 50.96006 7.90160 35303 ft 474 kts 120°
2026-04-29 16:05 50.91939 7.98420 35305 ft 481 kts 128°
2026-04-29 16:06 50.86910 8.05585 35297 ft 486 kts 135°
2026-04-29 16:06 50.81731 8.12507 35296 ft 487 kts 135°
2026-04-29 16:07 50.76550 8.19434 35295 ft 485 kts 135°
2026-04-29 16:07 50.71513 8.26149 35299 ft 473 kts 135°
2026-04-29 16:08 50.66455 8.32887 35301 ft 477 kts 135°
2026-04-29 16:08 50.61408 8.39583 35305 ft 477 kts 135°
2026-04-29 16:09 50.56318 8.46320 35307 ft 478 kts 136°
2026-04-29 16:09 50.51222 8.53045 35304 ft 479 kts 136°
2026-04-29 16:10 50.46098 8.59786 35302 ft 479 kts 136°
2026-04-29 16:10 50.40787 8.66073 35300 ft 485 kts 146°
2026-04-29 16:11 50.34847 8.71259 35289 ft 486 kts 147°
2026-04-29 16:11 50.32089 8.74203 35290 ft 481 kts 135°
2026-04-29 16:11 50.29767 8.77947 35285 ft 476 kts 124°
2026-04-29 16:11 50.28002 8.82296 35285 ft 470 kts 112°
2026-04-29 16:12 50.26835 8.87017 35289 ft 465 kts 103°
2026-04-29 16:12 50.25073 8.96728 35289 ft 466 kts 103°
2026-04-29 16:13 50.23071 9.06373 35292 ft 467 kts 105°
2026-04-29 16:13 50.21328 9.14341 35288 ft 468 kts 105°
2026-04-29 16:14 50.19275 9.23979 35290 ft 467 kts 101°
2026-04-29 16:14 50.18253 9.33895 35289 ft 461 kts 89°
2026-04-29 16:15 50.18308 9.43918 35289 ft 460 kts 85°
2026-04-29 16:15 50.18437 9.53844 35290 ft 461 kts 85°
2026-04-29 16:16 50.18512 9.63923 35292 ft 460 kts 85°
2026-04-29 16:16 50.18672 9.73798 35299 ft 456 kts 85°
2026-04-29 16:17 50.18795 9.83653 35305 ft 457 kts 85°
2026-04-29 16:17 50.18868 9.93598 35307 ft 458 kts 86°
2026-04-29 16:17 50.18574 9.98606 35313 ft 465 kts 98°
2026-04-29 16:18 50.17639 10.03480 35311 ft 470 kts 109°
2026-04-29 16:18 50.16105 10.07965 35313 ft 476 kts 121°
2026-04-29 16:18 50.14021 10.12036 35302 ft 480 kts 128°
2026-04-29 16:18 50.11864 10.15968 35299 ft 468 kts 127°
2026-04-29 16:19 50.09812 10.19711 35310 ft 451 kts 127°
2026-04-29 16:19 50.07912 10.23468 35308 ft 431 kts 121°
2026-04-29 16:19 50.06371 10.27398 35310 ft 413 kts 114°
2026-04-29 16:19 50.05158 10.31306 35189 ft 401 kts 111°
2026-04-29 16:20 50.03966 10.35255 34778 ft 399 kts 111°
2026-04-29 16:20 50.02781 10.39154 34231 ft 401 kts 111°
2026-04-29 16:20 50.01586 10.43063 33601 ft 403 kts 111°
2026-04-29 16:20 50.00379 10.46999 32983 ft 405 kts 111°
2026-04-29 16:21 49.99157 10.50977 32226 ft 410 kts 111°
2026-04-29 16:21 49.97905 10.55045 31268 ft 419 kts 111°
2026-04-29 16:21 49.96495 10.59041 30322 ft 432 kts 121°
2026-04-29 16:21 49.94482 10.62556 29247 ft 446 kts 135°
2026-04-29 16:22 49.91903 10.65371 28207 ft 457 kts 149°
2026-04-29 16:22 49.88954 10.67275 27202 ft 465 kts 161°
2026-04-29 16:22 49.85810 10.68638 26229 ft 469 kts 164°
2026-04-29 16:22 49.82635 10.69961 25287 ft 472 kts 163°
2026-04-29 16:23 49.79502 10.71358 24385 ft 474 kts 165°
2026-04-29 16:23 49.76225 10.72124 23423 ft 475 kts 177°
2026-04-29 16:23 49.72958 10.71875 22397 ft 474 kts 189°
2026-04-29 16:23 49.69750 10.70619 21400 ft 471 kts 201°
2026-04-29 16:24 49.66803 10.68421 20426 ft 467 kts 213°
2026-04-29 16:24 49.64264 10.65429 19510 ft 462 kts 225°
2026-04-29 16:24 49.62171 10.61696 18609 ft 456 kts 237°
2026-04-29 16:24 49.60658 10.57441 17678 ft 447 kts 250°
2026-04-29 16:25 49.59802 10.52940 16790 ft 438 kts 262°
2026-04-29 16:25 49.59620 10.48272 15920 ft 429 kts 275°
2026-04-29 16:25 49.60131 10.43823 15102 ft 421 kts 289°
2026-04-29 16:25 49.61309 10.39730 14274 ft 414 kts 303°
2026-04-29 16:26 49.63087 10.36279 13379 ft 407 kts 317°
2026-04-29 16:26 49.65312 10.33726 12522 ft 401 kts 332°
2026-04-29 16:26 49.67892 10.32168 11657 ft 396 kts 347°
2026-04-29 16:26 49.70636 10.31764 10830 ft 391 kts
2026-04-29 16:27 49.73267 10.32538 10026 ft 387 kts 19°
2026-04-29 16:27 49.75728 10.34094 9201 ft 383 kts 25°
2026-04-29 16:27 49.78138 10.35855 8559 ft 373 kts 26°
2026-04-29 16:27 49.80377 10.37544 8346 ft 346 kts 27°
2026-04-29 16:28 49.82458 10.39066 8291 ft 318 kts 23°
2026-04-29 16:28 49.84507 10.39998 8299 ft 293 kts 10°
2026-04-29 16:28 49.86446 10.40168 8299 ft 270 kts 358°
2026-04-29 16:28 49.88242 10.39810 8291 ft 249 kts 351°
2026-04-29 16:29 49.89941 10.39164 8305 ft 258 kts 346°
2026-04-29 16:29 49.91681 10.38436 8302 ft 261 kts 352°
2026-04-29 16:29 49.93475 10.38132 8300 ft 256 kts
2026-04-29 16:29 49.95241 10.38432 8306 ft 256 kts 19°
2026-04-29 16:30 49.96749 10.39821 8308 ft 253 kts 47°
2026-04-29 16:30 49.97611 10.42148 8311 ft 254 kts 76°
2026-04-29 16:30 49.97617 10.44893 8304 ft 256 kts 104°
2026-04-29 16:30 49.96755 10.47293 8309 ft 262 kts 133°
2026-04-29 16:31 49.95228 10.48815 8309 ft 265 kts 157°
2026-04-29 16:31 49.93458 10.49736 8304 ft 267 kts 162°
2026-04-29 16:31 49.91687 10.50548 8302 ft 266 kts 162°
2026-04-29 16:31 49.89924 10.51392 8297 ft 266 kts 161°
2026-04-29 16:32 49.88160 10.52295 8297 ft 267 kts 160°
2026-04-29 16:32 49.86397 10.53239 8297 ft 266 kts 159°
2026-04-29 16:32 49.84666 10.54183 8297 ft 265 kts 159°
2026-04-29 16:32 49.82939 10.55130 8296 ft 265 kts 159°
2026-04-29 16:33 49.79463 10.57036 8298 ft 264 kts 159°
2026-04-29 16:33 49.77719 10.57990 8292 ft 264 kts 159°
2026-04-29 16:33 49.75970 10.58946 8293 ft 265 kts 159°
2026-04-29 16:34 49.74241 10.59888 8294 ft 265 kts 159°
2026-04-29 16:34 49.72506 10.60834 8289 ft 265 kts 159°
2026-04-29 16:34 49.70752 10.61792 8291 ft 266 kts 159°
2026-04-29 16:34 49.69021 10.62734 8285 ft 264 kts 159°
2026-04-29 16:35 49.67300 10.63666 8252 ft 263 kts 159°
2026-04-29 16:35 49.65561 10.64607 8045 ft 262 kts 159°
2026-04-29 16:35 49.63839 10.65541 7746 ft 261 kts 159°
2026-04-29 16:35 49.62142 10.66461 7429 ft 259 kts 159°
2026-04-29 16:36 49.60445 10.67381 7115 ft 257 kts 158°
2026-04-29 16:36 49.58769 10.68287 6799 ft 256 kts 158°
2026-04-29 16:36 49.57091 10.69191 6501 ft 254 kts 158°
2026-04-29 16:36 49.55416 10.70096 6159 ft 254 kts 157°
2026-04-29 16:37 49.53940 10.71461 5803 ft 249 kts 129°
2026-04-29 16:37 49.53184 10.73828 5351 ft 247 kts 101°
2026-04-29 16:37 49.52924 10.76437 4993 ft 246 kts 95°
2026-04-29 16:37 49.52784 10.78171 4741 ft 246 kts 97°
2026-04-29 16:38 49.52447 10.81599 4278 ft 240 kts 97°
2026-04-29 16:38 49.52197 10.84116 3952 ft 232 kts 96°
2026-04-29 16:38 49.51962 10.86508 3654 ft 225 kts 97°
2026-04-29 16:38 49.51730 10.88874 3344 ft 219 kts 97°
2026-04-29 16:39 49.51507 10.91173 3062 ft 215 kts 97°
2026-04-29 16:39 49.51285 10.93406 2783 ft 211 kts 96°
2026-04-29 16:39 49.51069 10.95624 2488 ft 206 kts 96°
2026-04-29 16:39 49.50859 10.97719 2276 ft 185 kts 96°
2026-04-29 16:40 49.50683 10.99519 1981 ft 159 kts 96°
2026-04-29 16:40 49.50529 11.01093 1714 ft 138 kts 96°
2026-04-29 16:40 49.50391 11.02484 1447 ft 127 kts 96°
2026-04-29 16:40 49.50265 11.03757 1272 ft 114 kts 94°
2026-04-29 16:41 49.50151 11.04992 1184 ft 115 kts 97°
2026-04-29 16:41 49.50038 11.06158 1038 ft 106 kts 98°
2026-04-29 16:41 49.49951 11.07108 1039 ft 69 kts 97°
2026-04-29 16:41 49.49915 11.07381 1043 ft 1 kts 105°
2026-04-29 16:42 49.49897 11.07513 1045 ft 18 kts 98°
2026-04-29 16:42 49.49839 11.07641 1045 ft 12 kts 144°
2026-04-29 16:42 49.49825 11.07655 1045 ft 0 kts 148°
2026-04-29 16:42 49.49823 11.07657 1045 ft 2 kts 148°
2026-04-29 16:43 49.49813 11.07664 1045 ft 8 kts 156°
2026-04-29 16:43 49.49757 11.07708 1045 ft 0 kts 150°
2026-04-29 16:43 49.49754 11.07711 1045 ft 2 kts 150°
2026-04-29 16:44 49.49726 11.07733 1044 ft 7 kts 153°
2026-04-29 16:44 49.49680 11.07764 1042 ft 7 kts 165°
2026-04-29 16:44 49.49653 11.07774 1041 ft 0 kts 172°
2026-04-29 16:45 49.49642 11.07775 1040 ft 5 kts 181°
2026-04-29 16:45 49.49604 11.07741 1038 ft 8 kts 240°
2026-04-29 16:45 49.49577 11.07680 1036 ft 8 kts 218°
2026-04-29 16:45 49.49551 11.07666 1034 ft 2 kts 191°
2026-04-29 16:46 49.49537 11.07663 1033 ft 2 kts 189°
2026-04-29 16:46 49.49525 11.07660 1032 ft 0 kts 189°